Valley Farms, AZ

3:49 PM MST on August 30, 2016 (GMT -0700)
Coolidge Muni, Coolidge

Weather History for KP08 - February, 2014

Change the Weather History Date:

Wednesday, February 26, 2014

  Actual Average (KCGZ) Record (KCGZ)
Temperature  
Mean Temperature 67 °F -  
Max Temperature 77 °F 63 °F 84 °F (2016)
Min Temperature 57 °F 40 °F 28 °F (2013)
Cooling Degree Days 2    
Growing Degree Days 17 (Base 50)    
Moisture  
Dew Point 34 °F    
Average Humidity 27    
Maximum Humidity 38    
Minimum Humidity 19    
Precipitation  
Precipitation 0.00 in - - ()
Sea Level Pressure  
Sea Level Pressure 29.94 in    
Wind  
Wind Speed 5 mph (WNW)    
Max Wind Speed 9 mph    
Max Gust Speed -    
Visibility 10 miles    
Events      
Averages and records for this station are not official NWS values.
T = Trace of Precipitation, MM = Missing Value Source: NWS Daily Summary

Daily Weather History Graph

Daily Weather History Graph

Search for Another Location

Airport or City:

Trip Planner

Search our weather history database for the weather conditions in past years. The results will help you decide how hot, cold, wet, or windy it might be!

Date:

Astronomy

Feb. 26, 2014 Rise Set
Actual Time 6:57 AM MST 6:20 PM MST
Civil Twilight 6:32 AM MST 6:45 PM MST
Nautical Twilight 6:03 AM MST 7:14 PM MST
Astronomical Twilight 5:34 AM MST 7:42 PM MST
Moon 4:39 AM MST (2/26) 3:45 PM MST (2/26)
Length of Visible Light 12h 13m
Length of Day
11h 23m
Waning Crescent, 9% of the Moon is Illuminated
Feb 26
Waning Crescent
Mar 1
New
Mar 8
First Quarter
Mar 16
Full
Mar 23
Last Quarter

Hourly Weather History & Observations

Time (MST) Temp. Dew Point Humidity Pressure Visibility Wind Dir Wind Speed Gust Speed Precip Events Conditions
11:55 AM 73.4 °F 35.6 °F 25% 30.02 in 10.0 mi SW 4.6 mph - N/A   Clear
12:15 PM 75.2 °F 35.6 °F 24% 30.01 in 10.0 mi Variable 6.9 mph - N/A   Clear
12:35 PM 73.4 °F 35.6 °F 25% 30.00 in 10.0 mi Calm Calm - N/A   Clear
12:55 PM 75.2 °F 37.4 °F 25% 29.99 in 10.0 mi Variable 4.6 mph - N/A   Clear
1:15 PM 75.2 °F 37.4 °F 25% 29.97 in 10.0 mi NW 5.8 mph - N/A   Clear
1:35 PM 77.0 °F 37.4 °F 24% 29.96 in 10.0 mi West 8.1 mph - N/A   Clear
1:55 PM 77.0 °F 37.4 °F 24% 29.94 in 10.0 mi WSW 9.2 mph - N/A   Clear
2:15 PM 77.0 °F 35.6 °F 22% 29.94 in 10.0 mi Variable 6.9 mph - N/A   Clear
2:35 PM 77.0 °F 37.4 °F 24% 29.93 in 10.0 mi West 8.1 mph - N/A   Clear
2:55 PM 77.0 °F 37.4 °F 24% 29.93 in 10.0 mi WSW 8.1 mph - N/A   Clear
3:15 PM 77.0 °F 35.6 °F 22% 29.92 in 10.0 mi West 8.1 mph - N/A   Clear
3:35 PM 77.0 °F 35.6 °F 22% 29.92 in 10.0 mi WNW 8.1 mph - N/A   Clear
3:55 PM 77.0 °F 33.8 °F 21% 29.91 in 10.0 mi WNW 8.1 mph - N/A   Clear
4:15 PM 77.0 °F 33.8 °F 21% 29.90 in 10.0 mi Variable 6.9 mph - N/A   Clear
4:35 PM 77.0 °F 33.8 °F 21% 29.90 in 10.0 mi NW 5.8 mph - N/A   Clear
4:55 PM 77.0 °F 32.0 °F 19% 29.90 in 10.0 mi West 6.9 mph - N/A   Clear
5:15 PM 77.0 °F 33.8 °F 21% 29.90 in 10.0 mi NW 4.6 mph - N/A   Clear
5:35 PM 77.0 °F 33.8 °F 21% 29.90 in 10.0 mi NW 3.5 mph - N/A   Clear
5:55 PM 75.2 °F 32.0 °F 21% 29.89 in 10.0 mi Calm Calm - N/A   Clear
6:15 PM 75.2 °F 32.0 °F 21% 29.89 in 10.0 mi Calm Calm - N/A   Clear
6:35 PM 73.4 °F 32.0 °F 22% 29.90 in 10.0 mi Calm Calm - N/A   Clear
6:55 PM 71.6 °F 32.0 °F 23% 29.90 in 10.0 mi North 6.9 mph - N/A   Clear
7:15 PM 71.6 °F 33.8 °F 25% 29.91 in 10.0 mi North 6.9 mph - N/A   Clear
7:35 PM 69.8 °F 35.6 °F 28% 29.91 in 10.0 mi North 5.8 mph - N/A   Clear
7:55 PM 69.8 °F 35.6 °F 28% 29.91 in 10.0 mi North 5.8 mph - N/A   Clear
8:15 PM 68.0 °F 35.6 °F 30% 29.92 in 10.0 mi North 5.8 mph - N/A   Clear
8:35 PM 68.0 °F 35.6 °F 30% 29.93 in 10.0 mi North 4.6 mph - N/A   Clear
8:55 PM 68.0 °F 35.6 °F 30% 29.93 in 10.0 mi NNW 3.5 mph - N/A   Clear
9:15 PM 66.2 °F 35.6 °F 32% 29.94 in 10.0 mi Calm Calm - N/A   Clear
9:35 PM 66.2 °F 33.8 °F 30% 29.95 in 10.0 mi Calm Calm - N/A   Clear
9:55 PM 62.6 °F 33.8 °F 34% 29.95 in 10.0 mi Calm Calm - N/A   Clear
10:15 PM 60.8 °F 32.0 °F 34% 29.96 in 10.0 mi South 8.1 mph - N/A   Clear
10:35 PM 59.0 °F 32.0 °F 36% 29.96 in 10.0 mi SSE 4.6 mph - N/A   Clear
10:55 PM 59.0 °F 32.0 °F 36% 29.96 in 10.0 mi SSE 6.9 mph - N/A   Clear
11:15 PM 59.0 °F 32.0 °F 36% 29.96 in 10.0 mi SSE 5.8 mph - N/A   Clear
11:35 PM 57.2 °F 32.0 °F 38% 29.96 in 10.0 mi South 6.9 mph - N/A   Clear
11:55 PM 57.2 °F 32.0 °F 38% 29.96 in 10.0 mi SSE 8.1 mph - N/A   Clear